Printer-friendly version

IAU Minor Planet Center

Minor Planet Center

MPEC 2000-U32: 2000 EB173

The following Minor Planet Electronic Circular may be linked-to from your own Web pages, but must not otherwise be redistributed electronically.


Read MPEC 2000-U31 Read MPEC 2000-U33


M.P.E.C. 2000-U32                                Issued 2000 Oct. 28, 21:18 UT

     The Minor Planet Electronic Circulars contain information on unusual
         minor planets and routine data on comets.  They are published
   on behalf of Commission 20 of the International Astronomical Union by the
          Minor Planet Center, Smithsonian Astrophysical Observatory,
                          Cambridge, MA 02138, U.S.A.

             Prepared using the Tamkin Foundation Computer Network

                              MPC@CFA.HARVARD.EDU
          URL http://cfa-www.harvard.edu/iau/mpc.html  ISSN 1523-6714

                                  2000 EB173

                           Revision to MPEC 2000-L09

Observations:
     K00EH3B 1 1996 04 09.23333 12 39 09.80 +01 40 27.5                      261
     K00EH3B 1 1996 04 09.27847 12 39 09.57 +01 40 29.8                      261

Observer details:
261 Palomar-DSS.  Trail located and measured by DANEOPS (R. Stoss).  Trail
    also located and measured by V. S. Casulli and S. Valentini.  1.2-m
    Schmidt.

Orbital elements:
2000 EB173
Epoch 2000 Sept. 13.0 TT = JDT 2451800.5                Williams
M 338.91890              (2000.0)            P               Q
n   0.00403665     Peri.   67.32559     -0.54307680     +0.83823269
a  39.0650934      Node   169.35756     -0.83449910     -0.53227369
e   0.2680069      Incl.   15.49279     -0.09316032     -0.11853556
P 244              H    4.8           G   0.15           U   5
Residuals in seconds of arc
960409 261  0.2-  0.3-    000604 673  0.6+  0.2-    000613 568  0.0   0.6-
960409 261  0.2+  0.2+    000604 673  0.3+  0.2-    000622 735  0.0   0.0
000301 303  0.1-  0.1-    000604 673  0.2+  0.4+    000622 853  0.2+  0.1+
000303 303  0.1-  0.3+    000605 684  0.2-  0.2+    000622 853  0.3+  0.1+
000307 303  0.1+  0.1+    000605 684  0.5-  0.2-    000622 853  0.3+  0.4-
000308 303  0.2-  0.2+    000605 684  0.1-  0.4-    000622 853  0.3+  0.1-
000310 303  0.5+  0.2+    000606 684  0.3-  0.4-    000623 735  0.5+  0.8+
000311 303  0.0   0.2+    000606 684  0.2-  0.3-    000626 853  0.2-  0.5+
000315 303  0.2+  0.2+    000606 684  0.1+  0.0     000626 853  0.3+  0.2-
000315 303  0.3+  0.0     000607 046  1.0-  0.0     000626 853  0.8+  0.2+
000603 046  1.0-  1.5+    000612 568  0.1-  0.6-    000626 853  0.0   0.2+
000603 046  0.4-  0.7+    000612 568  0.2-  0.6-    000630 568  0.0   0.8-
000603 807  0.5-  0.4+    000613 568  0.1+  0.3-    000701 568  0.0   1.0-

Ephemeris:
2000 EB173               a,e,i = 39.07, 0.27, 15                 q = 28.595
Date    TT    R. A. (2000) Decl.     Delta      r     Elong.  Phase     V
2000 10 23    13 23.68   -00 36.2   30.805   29.835    12.8     0.4    19.7
2000 11 02    13 25.11   -00 43.0   30.753   29.831    21.3     0.7    19.7
2000 11 12    13 26.47   -00 49.1   30.675   29.826    30.5     1.0    19.8
2000 11 22    13 27.75   -00 54.3   30.572   29.822    40.0     1.2    19.8
2000 12 02    13 28.92   -00 58.3   30.446   29.817    49.6     1.4    19.8
2000 12 12    13 29.94   -01 01.1   30.302   29.813    59.4     1.6    19.8
2000 12 22    13 30.80   -01 02.7   30.143   29.808    69.3     1.8    19.8

Gareth V. Williams           (C) Copyright 2000 MPC           M.P.E.C. 2000-U32

Read MPEC 2000-U31 Read MPEC 2000-U33


Our Web policy. Index to the CBAT/MPC/ICQ pages.


Valid HTML 4.01!